Regional Weather Roundup
Issued by NWS New Orleans/Baton Rouge, LA

Home | Current Version | Previous Version | Text Only | Print | Product List | Glossary On
Versions: 1 2 3 4 5 6 7 8 9 10 11 12 13 14 15 16 17 18 19 20 21 22 23 24 25 26 27 28 29 30 31 32 33 34 35 36 37 38 39 40 41 42 43 44 45 46 47 48 49 50
321
ASUS44 KLIX 011207
RWRLIX
NEW ORLEANS REGIONAL WEATHER ROUNDUP
NATIONAL WEATHER SERVICE NEW ORLEANS LA
700 AM CDT WED APR 01 2015

NOTE: "FAIR" INDICATES FEW OR NO CLOUDS BELOW 12,000 FEET WITH NO
      SIGNIFICANT WEATHER AND/OR OBSTRUCTIONS TO VISIBILITY.
      SKY/WX - SKY CONDITION AND SIGNIFICANT WEATHER.
      TMP - AIR TEMPERATURE.     DP    - DEWPOINT TEMPERATURE.
      RH  - RELATIVE HUMIDITY.   PRES  - PRESSURE.
      HI  - HEAT INDEX.          WCI   - WIND CHILL INDEX.

*  THESE STATIONS ARE NOT NWS OR FAA STATIONS AND ARE NOT UNDER
   NWS QUALITY CONTROL.

LAZ038-040-048-061>063-065>067-069-011300-
SOUTHEAST LOUISIANA

CITY           SKY/WX    TMP DP  RH WIND       PRES   REMARKS
N.O. AUDUBON   NOT AVBL
N.O. INTL ARPT MOCLDY    65  62  90 S5        30.04R
6HR MIN TEMP:  64; 6HR MAX TEMP:  67;

N.O. LAKEFRONT MOCLDY    67  62  84 S7        30.05R
6HR MIN TEMP:  66; 6HR MAX TEMP:  70;

SLIDELL        CLOUDY    57  56  96 CALM      30.05R
6HR MIN TEMP:  56; 6HR MAX TEMP:  67;

BATON ROUGE    MOCLDY    59  59 100 NE3       30.03R FOG
6HR MIN TEMP:  58; 6HR MAX TEMP:  66;

BOOTHVILLE     PTCLDY    67  65  93 CALM      30.07R
6HR MIN TEMP:  64; 6HR MAX TEMP:  73;

BELLE CHASSE   FOG       60  59  96 CALM      30.04S VSB 1
6HR MIN TEMP:  57; 6HR MAX TEMP:  61;

BOGALUSA*        N/A     59  57  91 CALM      30.07R FOG
6HR MIN TEMP:  56; 6HR MAX TEMP:  66;

GALLIANO*      PTSUNNY   56  55  99 CALM      30.05R FOG
6HR MIN TEMP:  55; 6HR MAX TEMP:  58;

NEW ROADS*     FOG       63  62  97 CALM      30.03S VSB<1/4
6HR MIN TEMP:  62; 6HR MAX TEMP:  64;

GONZALES*      FOG       62  62 100 CALM      30.04R VSB 3/4
6HR MIN TEMP:  61; 6HR MAX TEMP:  64;

HAMMOND*       FOG       59  57  94 CALM      30.06R VSB 3/4
HOUMA*         FOG       59  59 100 CALM      30.04S VSB 1
PORT FOURCHON* PTSUNNY   70  68  94 CALM      30.08R

$$

MSZ070-080>082-011300-
SOUTHERN MISSISSIPPI

CITY           SKY/WX    TMP DP  RH WIND       PRES   REMARKS
MCCOMB         CLOUDY    63  63 100 CALM      30.05R FOG
6HR MIN TEMP:  60; 6HR MAX TEMP:  63;

GULFPORT       MOCLDY    61  58  90 CALM      30.06R
6HR MIN TEMP:  60; 6HR MAX TEMP:  68;

BILOXI         MOCLDY    64  64 100 N3        30.06R
6HR MIN TEMP:  64; 6HR MAX TEMP:  69;

PASCAGOULA     FOG       57  56  96 CALM      30.08R VSB 1/2
6HR MIN TEMP:  56; 6HR MAX TEMP:  68;

STENNIS ARPT*  FOG       57  54  88 MISG      30.06  VSB 1

$$

COASTAL OBSERVATIONS
LAKE AND NEARSHORE STATIONS

STATION/POSITION TIME  TEMP    WIND        PRES    WAVE
                       AIR SEA DIR/SP/G            HT/PER
                 (UTC) (F)     (DEG/KT/KT) (MB)    (FT/S)
PASCAGOULA       1100   68     270/  4/  5 1017.1
WAVELAND YACHT   1100   66 69  240/  4/  5 1017.1
GRAND ISLE       1100   69 72  150/  2/  3 1017.1
SOUTHWEST PASS   1100   64 55  130/  2/  3 1018.0
NEW CANAL        1100   66     190/  3/  5 1017.6
SHELL BEACH      1100   68 71  280/  3/  4 1017.4

OFFSHORE STATIONS

STATION/POSITION TIME  TEMP    WIND        PRES    WAVE
                       AIR SEA DIR/SP/G            HT/PER
                 (UTC) (F)     (DEG/KT/KT) (MB)    (FT/S)
64 S DAUPHIN ISL 1150   71 71  230/  2/  2 1018.6    2/ 7

$$




USA.gov is the U.S. government's official web portal to all federal, state and local government web resources and services.